| time (UTC) | temp F | wind direction | speed MPH | gust MPH | rain 1hr in | rain 24hr in | rain mn in | humidity % | barometer mb |
| 20260508151514 | 64 | 179 | 2.0 | 8.0 | 0.00 | 0.00 | 0.00 | 73 | 1014.8 |
| 20260508151457 | 64 | 229 | 3.0 | 8.0 | 0.00 | 0.00 | 0.00 | 73 | 1015.1 |
| 20260508150928 | 64 | 253 | 4.0 | 6.0 | 0.00 | 0.00 | 0.00 | 74 | 1015.2 |
| 20260508150440 | 63 | 250 | 4.0 | 7.0 | 0.00 | 0.00 | 0.00 | 74 | 1015.2 |
| 20260508150002 | 63 | 245 | 2.0 | 7.0 | 0.00 | 0.00 | 0.00 | 73 | 1014.8 |
| 20260508145921 | 64 | 238 | 3.0 | 7.0 | 0.00 | 0.00 | 0.00 | 73 | 1015.2 |
| 20260508145433 | 63 | 204 | 2.0 | 6.0 | 0.00 | 0.00 | 0.00 | 73 | 1015.1 |
| 20260508144947 | 63 | 236 | 2.0 | 4.0 | 0.00 | 0.00 | 0.00 | 76 | 1015.1 |
| 20260508144509 | 62 | 238 | 1.0 | 4.0 | 0.00 | 0.00 | 0.00 | 75 | 1014.8 |
| 20260508144426 | 63 | 241 | 1.0 | 4.0 | 0.00 | 0.00 | 0.00 | 76 | 1015.1 |
| 20260508143938 | 63 | 278 | 1.0 | 4.0 | 0.00 | 0.00 | 0.00 | 76 | 1015.1 |
| 20260508143440 | 62 | 207 | 1.0 | 4.0 | 0.00 | 0.00 | 0.00 | 75 | 1015.1 |
| 20260508143023 | 61 | 233 | 1.0 | 4.0 | 0.00 | 0.00 | 0.00 | 74 | 1014.8 |
| 20260508142930 | 62 | 193 | 1.0 | 4.0 | 0.00 | 0.00 | 0.00 | 74 | 1015.1 |
| 20260508142437 | 61 | 214 | 2.0 | 4.0 | 0.00 | 0.00 | 0.00 | 75 | 1015.1 |
| 20260508141948 | 61 | 248 | 2.0 | 4.0 | 0.00 | 0.00 | 0.00 | 75 | 1015.2 |
| 20260508141604 | 60 | 246 | 1.0 | 4.0 | 0.00 | 0.00 | 0.00 | 78 | 1014.9 |
| 20260508141436 | 60 | 205 | 1.0 | 4.0 | 0.00 | 0.00 | 0.00 | 79 | 1015.2 |
| 20260508140933 | 60 | 248 | 1.0 | 4.0 | 0.00 | 0.00 | 0.00 | 78 | 1015.2 |
| 20260508140445 | 60 | 222 | 0.0 | 3.0 | 0.00 | 0.00 | 0.00 | 80 | 1015.4 |
| 20260508140033 | 59 | 220 | 0.0 | 3.0 | 0.00 | 0.00 | 0.00 | 80 | 1015.1 |
| 20260508135934 | 59 | 217 | 1.0 | 3.0 | 0.00 | 0.00 | 0.00 | 81 | 1015.5 |
| 20260508135502 | 59 | 266 | 1.0 | 3.0 | 0.00 | 0.00 | 0.00 | 81 | 1015.3 |
| 20260508134923 | 58 | 233 | 1.0 | 2.0 | 0.00 | 0.00 | 0.00 | 82 | 1015.3 |
| 20260508134514 | 57 | 227 | 0.0 | 2.0 | 0.00 | 0.00 | 0.00 | 82 | 1015.0 |
| 20260508134453 | 58 | 247 | 1.0 | 2.0 | 0.00 | 0.00 | 0.00 | 82 | 1015.2 |
| 20260508133924 | 57 | 257 | 0.0 | 4.0 | 0.00 | 0.00 | 0.00 | 81 | 1015.2 |
| 20260508133436 | 57 | 172 | 1.0 | 4.0 | 0.00 | 0.00 | 0.00 | 82 | 1015.2 |
| 20260508133121 | 56 | 213 | 1.0 | 4.0 | 0.00 | 0.00 | 0.00 | 83 | 1014.9 |
| 20260508132937 | 56 | 228 | 0.0 | 4.0 | 0.00 | 0.00 | 0.00 | 83 | 1015.2 |
| 20260508132449 | 56 | 243 | 1.0 | 4.0 | 0.00 | 0.00 | 0.00 | 84 | 1015.2 |
| 20260508131940 | 56 | 208 | 1.0 | 4.0 | 0.00 | 0.00 | 0.00 | 84 | 1015.3 |
| 20260508131553 | 55 | 219 | 1.0 | 4.0 | 0.00 | 0.00 | 0.00 | 84 | 1015.0 |
| 20260508131421 | 56 | 264 | 2.0 | 4.0 | 0.00 | 0.00 | 0.00 | 85 | 1015.3 |
| 20260508130933 | 55 | 231 | 2.0 | 5.0 | 0.00 | 0.00 | 0.00 | 86 | 1015.6 |
| 20260508130445 | 54 | 246 | 2.0 | 5.0 | 0.00 | 0.00 | 0.00 | 87 | 1015.6 |
| 20260508130037 | 54 | 250 | 2.0 | 4.0 | 0.00 | 0.00 | 0.00 | 88 | 1015.3 |
| 20260508125949 | 54 | 200 | 2.0 | 4.0 | 0.00 | 0.00 | 0.00 | 88 | 1015.6 |
| 20260508125431 | 54 | 232 | 2.0 | 3.0 | 0.00 | 0.00 | 0.00 | 88 | 1015.6 |
| 20260508124923 | 54 | 231 | 2.0 | 2.0 | 0.00 | 0.00 | 0.00 | 88 | 1015.4 |
| 20260508124545 | 53 | 236 | 1.0 | 3.0 | 0.00 | 0.00 | 0.00 | 88 | 1015.0 |
| 20260508124424 | 53 | 231 | 2.0 | 3.0 | 0.00 | 0.00 | 0.00 | 88 | 1015.3 |
| 20260508123936 | 53 | 237 | 2.0 | 3.0 | 0.00 | 0.00 | 0.00 | 88 | 1015.2 |
| 20260508123428 | 53 | 233 | 1.0 | 5.0 | 0.00 | 0.00 | 0.00 | 89 | 1015.4 |
| 20260508123057 | 52 | 230 | 2.0 | 5.0 | 0.00 | 0.00 | 0.00 | 89 | 1015.2 |
| 20260508122958 | 53 | 239 | 3.0 | 5.0 | 0.00 | 0.00 | 0.00 | 89 | 1015.5 |
| 20260508122508 | 52 | 235 | 3.0 | 4.0 | 0.00 | 0.00 | 0.00 | 89 | 1015.6 |
| 20260508121930 | 53 | 236 | 3.0 | 4.0 | 0.00 | 0.00 | 0.00 | 88 | 1015.6 |
| 20260508121520 | 52 | 238 | 2.0 | 3.0 | 0.00 | 0.00 | 0.00 | 88 | 1015.2 |
| 20260508121440 | 53 | 233 | 3.0 | 3.0 | 0.00 | 0.00 | 0.00 | 88 | 1015.5 |
| 20260508120922 | 53 | 229 | 2.0 | 3.0 | 0.00 | 0.00 | 0.00 | 88 | 1015.5 |
| 20260508120433 | 52 | 235 | 2.0 | 3.0 | 0.00 | 0.00 | 0.00 | 88 | 1015.5 |
| 20260508120027 | 52 | 236 | 2.0 | 3.0 | 0.00 | 0.00 | 0.00 | 88 | 1015.2 |
| 20260508115923 | 53 | 228 | 2.0 | 3.0 | 0.00 | 0.00 | 0.00 | 87 | 1015.4 |
| 20260508115454 | 53 | 232 | 2.0 | 2.0 | 0.00 | 0.00 | 0.00 | 87 | 1015.2 |
| 20260508115001 | 53 | 233 | 1.0 | 2.0 | 0.00 | 0.00 | 0.00 | 87 | 1015.2 |
| 20260508114557 | 52 | 233 | 1.0 | 3.0 | 0.00 | 0.00 | 0.00 | 86 | 1014.9 |
| 20260508114421 | 53 | 239 | 2.0 | 3.0 | 0.00 | 0.00 | 0.00 | 86 | 1015.2 |
| 20260508113930 | 53 | 235 | 2.0 | 4.0 | 0.00 | 0.00 | 0.00 | 86 | 1015.3 |
| 20260508113441 | 53 | 229 | 2.0 | 4.0 | 0.00 | 0.00 | 0.00 | 85 | 1015.2 |
| 20260508113102 | 53 | 238 | 2.0 | 4.0 | 0.00 | 0.00 | 0.00 | 85 | 1014.9 |
| 20260508112922 | 53 | 219 | 3.0 | 3.0 | 0.00 | 0.00 | 0.00 | 85 | 1015.2 |
| 20260508112433 | 53 | 265 | 3.0 | 3.0 | 0.00 | 0.00 | 0.00 | 86 | 1015.4 |
| 20260508111931 | 53 | 248 | 2.0 | 3.0 | 0.00 | 0.00 | 0.00 | 85 | 1015.2 |
| 20260508111603 | 53 | 233 | 2.0 | 2.0 | 0.00 | 0.00 | 0.00 | 84 | 1014.7 |
| 20260508111433 | 53 | 232 | 2.0 | 2.0 | 0.00 | 0.00 | 0.00 | 84 | 1014.9 |
| 20260508110924 | 53 | 229 | 1.0 | 2.0 | 0.00 | 0.00 | 0.00 | 84 | 1014.9 |
| 20260508110427 | 54 | 240 | 1.0 | 2.0 | 0.00 | 0.00 | 0.00 | 83 | 1014.9 |
| 20260508110104 | 53 | 217 | 0.0 | 2.0 | 0.00 | 0.00 | 0.00 | 83 | 1014.6 |
| 20260508105428 | 54 | 236 | 1.0 | 2.0 | 0.00 | 0.00 | 0.00 | 83 | 1014.8 |
| 20260508104931 | 54 | 238 | 1.0 | 2.0 | 0.00 | 0.00 | 0.00 | 83 | 1014.8 |
| 20260508104510 | 53 | 236 | 1.0 | 2.0 | 0.00 | 0.00 | 0.00 | 83 | 1014.5 |
| 20260508104421 | 54 | 236 | 1.0 | 2.0 | 0.00 | 0.00 | 0.00 | 83 | 1014.8 |
| 20260508103932 | 54 | 236 | 1.0 | 2.0 | 0.00 | 0.00 | 0.00 | 83 | 1014.7 |
| 20260508103436 | 54 | 238 | 1.0 | 2.0 | 0.00 | 0.00 | 0.00 | 82 | 1014.8 |
| 20260508103020 | 53 | 240 | 0.0 | 1.0 | 0.00 | 0.00 | 0.00 | 82 | 1014.5 |
| 20260508102925 | 54 | 241 | 1.0 | 1.0 | 0.00 | 0.00 | 0.00 | 83 | 1014.8 |
| 20260508102458 | 54 | 238 | 1.0 | 1.0 | 0.00 | 0.00 | 0.00 | 82 | 1014.8 |
| 20260508101944 | 54 | 238 | 1.0 | 2.0 | 0.00 | 0.00 | 0.00 | 82 | 1014.7 |
| 20260508101507 | 54 | 233 | 0.0 | 2.0 | 0.00 | 0.00 | 0.00 | 82 | 1014.3 |
| 20260508101445 | 54 | 240 | 1.0 | 2.0 | 0.00 | 0.00 | 0.00 | 82 | 1014.6 |
| 20260508100935 | 54 | 235 | 1.0 | 2.0 | 0.00 | 0.00 | 0.00 | 82 | 1014.7 |
| 20260508100447 | 54 | 236 | 1.0 | 2.0 | 0.00 | 0.00 | 0.00 | 82 | 1014.7 |
| 20260508100057 | 54 | 239 | 1.0 | 2.0 | 0.00 | 0.00 | 0.00 | 82 | 1014.4 |
| 20260508095927 | 54 | 236 | 2.0 | 2.0 | 0.00 | 0.00 | 0.00 | 82 | 1014.8 |
| 20260508095438 | 54 | 238 | 1.0 | 3.0 | 0.00 | 0.00 | 0.00 | 82 | 1014.8 |
| 20260508094930 | 54 | 232 | 2.0 | 3.0 | 0.00 | 0.00 | 0.00 | 82 | 1014.9 |
| 20260508094550 | 54 | 236 | 1.0 | 3.0 | 0.00 | 0.00 | 0.00 | 81 | 1014.7 |
| 20260508094440 | 54 | 235 | 2.0 | 3.0 | 0.00 | 0.00 | 0.00 | 81 | 1015.0 |
| 20260508093940 | 54 | 241 | 2.0 | 3.0 | 0.00 | 0.00 | 0.00 | 82 | 1014.9 |
| 20260508093432 | 54 | 236 | 2.0 | 3.0 | 0.00 | 0.00 | 0.00 | 82 | 1015.0 |
| 20260508093052 | 54 | 237 | 1.0 | 3.0 | 0.00 | 0.00 | 0.00 | 82 | 1014.8 |
| 20260508093002 | 54 | 236 | 2.0 | 3.0 | 0.00 | 0.00 | 0.00 | 82 | 1015.0 |
| 20260508092424 | 54 | 231 | 2.0 | 3.0 | 0.00 | 0.00 | 0.00 | 83 | 1015.0 |
| 20260508091936 | 54 | 242 | 2.0 | 2.0 | 0.00 | 0.00 | 0.00 | 83 | 1015.0 |
| 20260508091541 | 53 | 240 | 1.0 | 2.0 | 0.00 | 0.00 | 0.00 | 84 | 1014.8 |
| 20260508091446 | 54 | 244 | 1.0 | 2.0 | 0.00 | 0.00 | 0.00 | 84 | 1015.0 |
| 20260508090958 | 54 | 236 | 2.0 | 2.0 | 0.00 | 0.00 | 0.00 | 83 | 1015.1 |
| 20260508090434 | 54 | 245 | 1.0 | 2.0 | 0.00 | 0.00 | 0.00 | 83 | 1015.0 |
| 20260508090027 | 54 | 248 | 1.0 | 2.0 | 0.00 | 0.00 | 0.00 | 83 | 1014.7 |
| 20260508085924 | 54 | 243 | 1.0 | 2.0 | 0.00 | 0.00 | 0.00 | 83 | 1015.0 |
| 20260508085427 | 54 | 240 | 1.0 | 2.0 | 0.00 | 0.00 | 0.00 | 83 | 1015.0 |
| 20260508084939 | 54 | 243 | 2.0 | 2.0 | 0.00 | 0.00 | 0.00 | 83 | 1014.9 |
| 20260508084533 | 54 | 238 | 1.0 | 2.0 | 0.00 | 0.00 | 0.00 | 83 | 1014.7 |
| 20260508084430 | 54 | 236 | 2.0 | 2.0 | 0.00 | 0.00 | 0.00 | 83 | 1015.0 |
| 20260508083933 | 54 | 241 | 2.0 | 3.0 | 0.00 | 0.00 | 0.00 | 83 | 1015.0 |
| 20260508083424 | 54 | 231 | 2.0 | 3.0 | 0.00 | 0.00 | 0.00 | 83 | 1014.9 |
| 20260508083041 | 53 | 222 | 1.0 | 3.0 | 0.00 | 0.00 | 0.00 | 84 | 1014.6 |
| 20260508082925 | 54 | 242 | 2.0 | 3.0 | 0.00 | 0.00 | 0.00 | 84 | 1014.9 |
| 20260508082436 | 54 | 235 | 2.0 | 3.0 | 0.00 | 0.00 | 0.00 | 84 | 1014.9 |
| 20260508081928 | 54 | 240 | 2.0 | 3.0 | 0.00 | 0.00 | 0.00 | 85 | 1014.9 |
| 20260508081603 | 54 | 239 | 2.0 | 3.0 | 0.00 | 0.00 | 0.00 | 85 | 1014.6 |
| 20260508081458 | 54 | 235 | 2.0 | 3.0 | 0.00 | 0.00 | 0.00 | 85 | 1014.9 |
| 20260508080948 | 54 | 243 | 2.0 | 2.0 | 0.00 | 0.00 | 0.00 | 85 | 1014.8 |
| 20260508080430 | 55 | 243 | 1.0 | 3.0 | 0.00 | 0.00 | 0.00 | 84 | 1014.7 |
| 20260508080035 | 54 | 245 | 1.0 | 4.0 | 0.00 | 0.00 | 0.00 | 84 | 1014.5 |
| 20260508075938 | 55 | 245 | 2.0 | 4.0 | 0.00 | 0.00 | 0.00 | 84 | 1014.8 |
| 20260508075421 | 55 | 250 | 2.0 | 4.0 | 0.00 | 0.00 | 0.00 | 84 | 1014.9 |
| 20260508074933 | 55 | 244 | 2.0 | 4.0 | 0.00 | 0.00 | 0.00 | 85 | 1014.9 |
| 20260508074523 | 54 | 248 | 2.0 | 4.0 | 0.00 | 0.00 | 0.00 | 85 | 1014.7 |
| 20260508074423 | 55 | 245 | 3.0 | 4.0 | 0.00 | 0.00 | 0.00 | 85 | 1014.8 |
| 20260508073951 | 55 | 240 | 2.0 | 3.0 | 0.00 | 0.00 | 0.00 | 85 | 1014.9 |
| 20260508073432 | 55 | 238 | 2.0 | 3.0 | 0.00 | 0.00 | 0.00 | 86 | 1014.9 |
| 20260508073017 | 54 | 238 | 2.0 | 3.0 | 0.00 | 0.00 | 0.00 | 86 | 1014.7 |
| 20260508072930 | 54 | 249 | 2.0 | 3.0 | 0.00 | 0.00 | 0.00 | 86 | 1014.9 |
| 20260508072439 | 54 | 236 | 2.0 | 3.0 | 0.00 | 0.00 | 0.00 | 87 | 1014.9 |
| 20260508071950 | 55 | 240 | 2.0 | 2.0 | 0.00 | 0.00 | 0.00 | 86 | 1014.9 |
| 20260508071546 | 54 | 242 | 1.0 | 3.0 | 0.00 | 0.00 | 0.00 | 86 | 1014.7 |
| 20260508071429 | 55 | 239 | 2.0 | 3.0 | 0.00 | 0.00 | 0.00 | 86 | 1014.9 |
| 20260508071010 | 55 | 236 | 2.0 | 3.0 | 0.00 | 0.00 | 0.00 | 86 | 1014.9 |
| 20260508070431 | 55 | 269 | 2.0 | 3.0 | 0.00 | 0.00 | 0.00 | 87 | 1015.0 |
| 20260508070032 | 54 | 240 | 2.0 | 3.0 | 0.00 | 0.00 | 0.00 | 87 | 1014.8 |
| 20260508065941 | 55 | 235 | 2.0 | 3.0 | 0.00 | 0.00 | 0.00 | 87 | 1015.0 |
| 20260508065421 | 55 | 243 | 2.0 | 3.0 | 0.00 | 0.00 | 0.00 | 87 | 1015.0 |
| 20260508064932 | 54 | 242 | 2.0 | 2.0 | 0.00 | 0.00 | 0.00 | 87 | 1015.0 |
| 20260508064537 | 54 | 237 | 1.0 | 2.0 | 0.00 | 0.00 | 0.00 | 87 | 1014.9 |
| 20260508064442 | 54 | 237 | 2.0 | 2.0 | 0.00 | 0.00 | 0.00 | 87 | 1015.1 |
| 20260508063925 | 55 | 238 | 2.0 | 2.0 | 0.00 | 0.00 | 0.00 | 87 | 1015.2 |
| 20260508063457 | 55 | 236 | 2.0 | 3.0 | 0.00 | 0.00 | 0.00 | 87 | 1015.2 |
| 20260508063024 | 54 | 236 | 1.0 | 3.0 | 0.00 | 0.00 | 0.00 | 87 | 1015.0 |
| 20260508062926 | 54 | 236 | 2.0 | 3.0 | 0.00 | 0.00 | 0.00 | 88 | 1015.2 |
| 20260508062424 | 54 | 239 | 2.0 | 2.0 | 0.00 | 0.00 | 0.00 | 88 | 1015.3 |
| 20260508061935 | 55 | 240 | 2.0 | 2.0 | 0.00 | 0.00 | 0.00 | 87 | 1015.3 |
| 20260508061532 | 54 | 241 | 1.0 | 2.0 | 0.00 | 0.00 | 0.00 | 87 | 1015.0 |
| 20260508061445 | 55 | 241 | 1.0 | 2.0 | 0.00 | 0.00 | 0.00 | 87 | 1015.3 |
| 20260508060936 | 55 | 248 | 1.0 | 2.0 | 0.00 | 0.00 | 0.00 | 87 | 1015.4 |
| 20260508060439 | 55 | 238 | 2.0 | 2.0 | 0.00 | 0.00 | 0.00 | 87 | 1015.4 |
| 20260508060022 | 54 | 240 | 1.0 | 2.0 | 0.00 | 0.00 | 0.00 | 87 | 1015.0 |
| 20260508055929 | 55 | 245 | 2.0 | 2.0 | 0.00 | 0.00 | 0.00 | 86 | 1015.3 |
| 20260508055441 | 55 | 240 | 2.0 | 2.0 | 0.00 | 0.00 | 0.00 | 85 | 1015.4 |
| 20260508055012 | 55 | 239 | 2.0 | 2.0 | 0.00 | 0.00 | 0.00 | 84 | 1015.3 |
| 20260508054504 | 55 | 243 | 1.0 | 2.0 | 0.00 | 0.00 | 0.00 | 84 | 1015.1 |
| 20260508054429 | 55 | 243 | 1.0 | 2.0 | 0.00 | 0.00 | 0.00 | 84 | 1015.3 |
| 20260508053940 | 55 | 240 | 1.0 | 2.0 | 0.00 | 0.00 | 0.00 | 84 | 1015.4 |
| 20260508053452 | 55 | 241 | 1.0 | 2.0 | 0.00 | 0.00 | 0.00 | 84 | 1015.4 |
| 20260508053058 | 55 | 243 | 1.0 | 2.0 | 0.00 | 0.00 | 0.00 | 84 | 1015.2 |
| 20260508053000 | 55 | 245 | 1.0 | 2.0 | 0.00 | 0.00 | 0.00 | 84 | 1015.4 |
| 20260508052440 | 56 | 240 | 1.0 | 2.0 | 0.00 | 0.00 | 0.00 | 83 | 1015.4 |
| 20260508051931 | 56 | 233 | 1.0 | 2.0 | 0.00 | 0.00 | 0.00 | 83 | 1015.4 |
| 20260508051539 | 55 | 233 | 1.0 | 1.0 | 0.00 | 0.00 | 0.00 | 83 | 1015.1 |
| 20260508051436 | 56 | 233 | 1.0 | 1.0 | 0.00 | 0.00 | 0.00 | 83 | 1015.3 |
| 20260508050939 | 56 | 224 | 1.0 | 2.0 | 0.00 | 0.00 | 0.00 | 82 | 1015.4 |
| 20260508050443 | 57 | 235 | 1.0 | 2.0 | 0.00 | 0.00 | 0.00 | 81 | 1015.5 |
| 20260508050025 | 56 | 236 | 1.0 | 3.0 | 0.00 | 0.00 | 0.00 | 81 | 1015.1 |
| 20260508045934 | 57 | 237 | 1.0 | 4.0 | 0.00 | 0.00 | 0.00 | 81 | 1015.4 |
| 20260508045456 | 56 | 231 | 2.0 | 5.0 | 0.00 | 0.00 | 0.00 | 81 | 1015.5 |
| 20260508044945 | 56 | 236 | 2.0 | 4.0 | 0.00 | 0.00 | 0.00 | 83 | 1015.5 |
| 20260508044609 | 56 | 231 | 2.0 | 4.0 | 0.00 | 0.00 | 0.00 | 83 | 1015.3 |
| 20260508044505 | 56 | 235 | 2.0 | 4.0 | 0.00 | 0.00 | 0.00 | 84 | 1015.5 |
| 20260508043943 | 56 | 231 | 2.0 | 3.0 | 0.00 | 0.00 | 0.00 | 84 | 1015.5 |
| 20260508043430 | 57 | 234 | 2.0 | 3.0 | 0.00 | 0.00 | 0.00 | 83 | 1015.4 |
| 20260508043113 | 56 | 238 | 1.0 | 3.0 | 0.00 | 0.00 | 0.00 | 83 | 1015.1 |
| 20260508042958 | 57 | 234 | 1.0 | 3.0 | 0.00 | 0.00 | 0.00 | 82 | 1015.4 |
| 20260508042425 | 57 | 219 | 1.0 | 5.0 | 0.00 | 0.00 | 0.00 | 82 | 1015.5 |
| 20260508042008 | 57 | 229 | 2.0 | 5.0 | 0.00 | 0.00 | 0.00 | 82 | 1015.4 |
| 20260508041509 | 57 | 206 | 1.0 | 5.0 | 0.00 | 0.00 | 0.00 | 82 | 1015.2 |
| 20260508041446 | 57 | 221 | 1.0 | 5.0 | 0.00 | 0.00 | 0.00 | 82 | 1015.5 |
| 20260508040937 | 57 | 234 | 1.0 | 5.0 | 0.00 | 0.00 | 0.00 | 82 | 1015.3 |
| 20260508040440 | 57 | 228 | 2.0 | 5.0 | 0.00 | 0.00 | 0.00 | 81 | 1015.4 |
| 20260508040017 | 57 | 229 | 1.0 | 6.0 | 0.00 | 0.00 | 0.00 | 81 | 1015.1 |
| 20260508035929 | 58 | 217 | 1.0 | 6.0 | 0.00 | 0.00 | 0.00 | 81 | 1015.4 |
| 20260508035433 | 58 | 236 | 2.0 | 7.0 | 0.00 | 0.00 | 0.00 | 80 | 1015.4 |
| 20260508034947 | 58 | 239 | 2.0 | 7.0 | 0.00 | 0.00 | 0.00 | 80 | 1015.3 |
| 20260508034507 | 57 | 245 | 2.0 | 7.0 | 0.00 | 0.00 | 0.00 | 80 | 1015.2 |
| 20260508034440 | 58 | 217 | 2.0 | 7.0 | 0.00 | 0.00 | 0.00 | 80 | 1015.4 |
| 20260508033924 | 58 | 220 | 3.0 | 7.0 | 0.00 | 0.00 | 0.00 | 80 | 1015.2 |
| 20260508033430 | 58 | 193 | 3.0 | 6.0 | 0.00 | 0.00 | 0.00 | 81 | 1015.4 |
| 20260508033038 | 57 | 224 | 2.0 | 6.0 | 0.00 | 0.00 | 0.00 | 81 | 1015.2 |
| 20260508032936 | 58 | 217 | 3.0 | 6.0 | 0.00 | 0.00 | 0.00 | 81 | 1015.4 |
| 20260508032434 | 58 | 189 | 2.0 | 8.0 | 0.00 | 0.00 | 0.00 | 81 | 1015.4 |
| 20260508031933 | 58 | 212 | 3.0 | 8.0 | 0.00 | 0.00 | 0.00 | 81 | 1015.3 |
| 20260508031601 | 57 | 190 | 2.0 | 7.0 | 0.00 | 0.00 | 0.00 | 81 | 1015.1 |
| 20260508031457 | 58 | 233 | 2.0 | 7.0 | 0.00 | 0.00 | 0.00 | 81 | 1015.4 |
| 20260508030931 | 58 | 252 | 3.0 | 7.0 | 0.00 | 0.00 | 0.00 | 80 | 1015.3 |
| 20260508030026 | 58 | 236 | 2.0 | 6.0 | 0.00 | 0.00 | 0.00 | 81 | 1015.1 |
| 20260508025953 | 58 | 214 | 2.0 | 6.0 | 0.00 | 0.00 | 0.00 | 80 | 1015.4 |
| 20260508025433 | 59 | 247 | 3.0 | 6.0 | 0.00 | 0.00 | 0.00 | 80 | 1015.3 |
| 20260508024937 | 59 | 238 | 2.0 | 6.0 | 0.00 | 0.00 | 0.00 | 79 | 1015.3 |
| 20260508024531 | 59 | 238 | 2.0 | 6.0 | 0.00 | 0.00 | 0.00 | 79 | 1015.1 |
| 20260508024432 | 59 | 231 | 2.0 | 5.0 | 0.00 | 0.00 | 0.00 | 79 | 1015.3 |
| 20260508023933 | 59 | 242 | 2.0 | 7.0 | 0.00 | 0.00 | 0.00 | 79 | 1015.2 |
| 20260508023434 | 60 | 230 | 2.0 | 7.0 | 0.00 | 0.00 | 0.00 | 78 | 1015.2 |
| 20260508023007 | 59 | 292 | 2.0 | 7.0 | 0.00 | 0.00 | 0.00 | 78 | 1014.9 |
| 20260508022935 | 60 | 236 | 3.0 | 7.0 | 0.00 | 0.00 | 0.00 | 78 | 1015.2 |
| 20260508022440 | 60 | 235 | 3.0 | 7.0 | 0.00 | 0.00 | 0.00 | 78 | 1015.0 |
| 20260508021943 | 60 | 210 | 3.0 | 8.0 | 0.00 | 0.00 | 0.00 | 77 | 1015.0 |
| 20260508021620 | 60 | 227 | 2.0 | 8.0 | 0.00 | 0.00 | 0.00 | 77 | 1014.8 |
| 20260508021449 | 60 | 234 | 3.0 | 8.0 | 0.00 | 0.00 | 0.00 | 76 | 1015.1 |
| 20260508020937 | 61 | 192 | 4.0 | 8.0 | 0.00 | 0.00 | 0.00 | 75 | 1015.0 |
| 20260508020448 | 61 | 228 | 4.0 | 8.0 | 0.00 | 0.00 | 0.00 | 74 | 1014.9 |
| 20260508020025 | 61 | 181 | 3.0 | 7.0 | 0.00 | 0.00 | 0.00 | 73 | 1014.7 |
| 20260508015937 | 62 | 222 | 4.0 | 7.0 | 0.00 | 0.00 | 0.00 | 72 | 1014.9 |
| 20260508015448 | 62 | 206 | 3.0 | 4.0 | 0.00 | 0.00 | 0.00 | 72 | 1014.8 |
| 20260508014930 | 62 | 217 | 3.0 | 4.0 | 0.00 | 0.00 | 0.00 | 70 | 1014.8 |
| 20260508014511 | 62 | 193 | 2.0 | 4.0 | 0.00 | 0.00 | 0.00 | 71 | 1014.6 |
| 20260508014500 | 62 | 216 | 2.0 | 4.0 | 0.00 | 0.00 | 0.00 | 72 | 1014.8 |
| 20260508013930 | 62 | 229 | 1.0 | 4.0 | 0.00 | 0.00 | 0.00 | 73 | 1014.8 |
| 20260508013457 | 62 | 229 | 1.0 | 5.0 | 0.00 | 0.00 | 0.00 | 72 | 1014.7 |
| 20260508013041 | 62 | 210 | 2.0 | 5.0 | 0.00 | 0.00 | 0.00 | 71 | 1014.5 |
| 20260508012946 | 63 | 225 | 2.0 | 5.0 | 0.00 | 0.00 | 0.00 | 71 | 1014.7 |
| 20260508012446 | 63 | 226 | 2.0 | 4.0 | 0.00 | 0.00 | 0.00 | 71 | 1014.5 |
| 20260508011936 | 63 | 228 | 2.0 | 5.0 | 0.00 | 0.00 | 0.00 | 70 | 1014.6 |
| 20260508011537 | 63 | 235 | 2.0 | 5.0 | 0.00 | 0.00 | 0.00 | 70 | 1014.4 |
| 20260508011426 | 63 | 219 | 3.0 | 5.0 | 0.00 | 0.00 | 0.00 | 69 | 1014.6 |
| 20260508010957 | 63 | 226 | 3.0 | 5.0 | 0.00 | 0.00 | 0.00 | 68 | 1014.5 |
| 20260508010449 | 64 | 214 | 3.0 | 4.0 | 0.00 | 0.00 | 0.00 | 67 | 1014.6 |
| 20260508010012 | 63 | 255 | 2.0 | 4.0 | 0.00 | 0.00 | 0.00 | 66 | 1014.3 |
| 20260508005929 | 64 | 189 | 3.0 | 4.0 | 0.00 | 0.00 | 0.00 | 66 | 1014.5 |
| 20260508005440 | 64 | 191 | 2.0 | 4.0 | 0.00 | 0.00 | 0.00 | 65 | 1014.6 |
| 20260508004922 | 64 | 207 | 3.0 | 4.0 | 0.00 | 0.00 | 0.00 | 65 | 1014.6 |
| 20260508004524 | 64 | 231 | 2.0 | 4.0 | 0.00 | 0.00 | 0.00 | 64 | 1014.3 |
| 20260508004432 | 64 | 212 | 2.0 | 4.0 | 0.00 | 0.00 | 0.00 | 64 | 1014.5 |
| 20260508003944 | 64 | 214 | 2.0 | 4.0 | 0.00 | 0.00 | 0.00 | 65 | 1014.5 |
| 20260508003426 | 64 | 211 | 2.0 | 4.0 | 0.00 | 0.00 | 0.00 | 65 | 1014.5 |
| 20260508003027 | 64 | 185 | 2.0 | 6.0 | 0.00 | 0.00 | 0.00 | 65 | 1014.2 |
| 20260508002936 | 64 | 203 | 2.0 | 6.0 | 0.00 | 0.00 | 0.00 | 65 | 1014.4 |
| 20260508002447 | 64 | 195 | 3.0 | 6.0 | 0.00 | 0.00 | 0.00 | 64 | 1014.4 |
| 20260508001929 | 65 | 228 | 3.0 | 4.0 | 0.00 | 0.00 | 0.00 | 64 | 1014.3 |
| 20260508001536 | 64 | 170 | 2.0 | 3.0 | 0.00 | 0.00 | 0.00 | 63 | 1014.2 |
| 20260508001434 | 65 | 188 | 2.0 | 3.0 | 0.00 | 0.00 | 0.00 | 63 | 1014.4 |
| 20260508000937 | 65 | 215 | 0.0 | 1.0 | 0.00 | 0.00 | 0.00 | 60 | 1014.4 |
| 20260508000450 | 65 | 181 | 0.0 | 2.0 | 0.00 | 0.00 | 0.00 | 60 | 1014.4 |
| 20260508000020 | 65 | 222 | 0.0 | 3.0 | 0.00 | 0.00 | 0.00 | 61 | 1014.2 |
| 20260507235938 | 65 | 222 | 1.0 | 3.0 | 0.00 | 0.00 | 0.00 | 60 | 1014.3 |
| 20260507235420 | 65 | 161 | 1.0 | 3.0 | 0.00 | 0.00 | 0.00 | 62 | 1014.4 |
| 20260507234931 | 66 | 170 | 0.0 | 2.0 | 0.00 | 0.00 | 0.00 | 62 | 1014.4 |
| 20260507234529 | 65 | 169 | 0.0 | 1.0 | 0.00 | 0.00 | 0.00 | 61 | 1014.3 |
| 20260507234441 | 66 | 170 | 0.0 | 1.0 | 0.00 | 0.00 | 0.00 | 61 | 1014.5 |
| 20260507233924 | 66 | 155 | 0.0 | 1.0 | 0.00 | 0.00 | 0.00 | 62 | 1014.4 |
| 20260507233436 | 66 | 46 | 0.0 | 0.0 | 0.00 | 0.00 | 0.00 | 62 | 1014.6 |
| 20260507233037 | 66 | 46 | 0.0 | 0.0 | 0.00 | 0.00 | 0.00 | 59 | 1014.5 |
| 20260507232946 | 67 | 46 | 0.0 | 1.0 | 0.00 | 0.00 | 0.00 | 60 | 1014.7 |
| 20260507232429 | 67 | 45 | 0.0 | 1.0 | 0.00 | 0.00 | 0.00 | 60 | 1014.6 |
| 20260507231940 | 67 | 46 | 0.0 | 1.0 | 0.00 | 0.00 | 0.00 | 61 | 1014.7 |
| 20260507231550 | 66 | 46 | 0.0 | 1.0 | 0.00 | 0.00 | 0.00 | 61 | 1014.6 |
| 20260507231421 | 67 | 46 | 0.0 | 1.0 | 0.00 | 0.00 | 0.00 | 60 | 1014.7 |
| 20260507230952 | 66 | 45 | 0.0 | 2.0 | 0.00 | 0.00 | 0.00 | 61 | 1014.7 |
| 20260507230423 | 66 | 46 | 1.0 | 2.0 | 0.00 | 0.00 | 0.00 | 59 | 1014.7 |
| 20260507230033 | 66 | 45 | 0.0 | 2.0 | 0.00 | 0.00 | 0.00 | 62 | 1014.5 |
| 20260507225933 | 67 | 45 | 1.0 | 2.0 | 0.00 | 0.00 | 0.00 | 60 | 1014.6 |
| 20260507225436 | 66 | 45 | 0.0 | 2.0 | 0.00 | 0.00 | 0.00 | 62 | 1014.6 |
| 20260507224928 | 67 | 45 | 1.0 | 2.0 | 0.00 | 0.00 | 0.00 | 61 | 1014.5 |
| 20260507224539 | 67 | 46 | 0.0 | 2.0 | 0.00 | 0.00 | 0.00 | 60 | 1014.5 |
| 20260507224424 | 68 | 43 | 0.0 | 2.0 | 0.00 | 0.00 | 0.00 | 59 | 1014.6 |
| 20260507223935 | 68 | 43 | 0.0 | 2.0 | 0.00 | 0.00 | 0.00 | 59 | 1014.7 |
| 20260507223424 | 69 | 248 | 0.0 | 1.0 | 0.00 | 0.00 | 0.00 | 58 | 1014.6 |
| 20260507223051 | 68 | 248 | 0.0 | 1.0 | 0.00 | 0.00 | 0.00 | 60 | 1014.5 |
| 20260507222925 | 69 | 248 | 0.0 | 2.0 | 0.00 | 0.00 | 0.00 | 58 | 1014.6 |
| 20260507222505 | 69 | 296 | 0.0 | 2.0 | 0.00 | 0.00 | 0.00 | 57 | 1014.7 |
| 20260507221927 | 69 | 296 | 1.0 | 2.0 | 0.00 | 0.00 | 0.00 | 58 | 1014.8 |
| 20260507221532 | 68 | 347 | 0.0 | 3.0 | 0.00 | 0.00 | 0.00 | 54 | 1014.6 |
| 20260507221457 | 69 | 30 | 1.0 | 3.0 | 0.00 | 0.00 | 0.00 | 54 | 1014.7 |
| 20260507220947 | 69 | 39 | 1.0 | 3.0 | 0.00 | 0.00 | 0.00 | 55 | 1014.6 |
| 20260507220430 | 70 | 53 | 1.0 | 3.0 | 0.00 | 0.00 | 0.00 | 54 | 1014.6 |
| 20260507220023 | 70 | 237 | 0.0 | 2.0 | 0.00 | 0.00 | 0.00 | 53 | 1014.6 |
| 20260507215939 | 70 | 233 | 0.0 | 2.0 | 0.00 | 0.00 | 0.00 | 54 | 1014.7 |
| 20260507215430 | 70 | 233 | 1.0 | 3.0 | 0.00 | 0.00 | 0.00 | 55 | 1014.7 |
| 20260507214943 | 70 | 233 | 2.0 | 3.0 | 0.00 | 0.00 | 0.00 | 54 | 1014.8 |
| 20260507214506 | 70 | 254 | 0.0 | 3.0 | 0.00 | 0.00 | 0.00 | 54 | 1014.6 |
| 20260507214424 | 71 | 254 | 1.0 | 3.0 | 0.00 | 0.00 | 0.00 | 55 | 1014.7 |
| 20260507213935 | 71 | 244 | 1.0 | 2.0 | 0.00 | 0.00 | 0.00 | 55 | 1014.6 |
| 20260507213437 | 71 | 23 | 0.0 | 1.0 | 0.00 | 0.00 | 0.00 | 54 | 1014.6 |
| 20260507213022 | 70 | 23 | 0.0 | 1.0 | 0.00 | 0.00 | 0.00 | 56 | 1014.6 |
| 20260507212928 | 71 | 20 | 0.0 | 1.0 | 0.00 | 0.00 | 0.00 | 58 | 1014.6 |
| 20260507212435 | 70 | 18 | 0.0 | 2.0 | 0.00 | 0.00 | 0.00 | 57 | 1014.6 |
| 20260507211938 | 69 | 15 | 2.0 | 4.0 | 0.00 | 0.00 | 0.00 | 54 | 1014.6 |
| 20260507211522 | 68 | 13 | 0.0 | 4.0 | 0.00 | 0.00 | 0.00 | 51 | 1014.6 |
| 20260507211448 | 69 | 13 | 1.0 | 4.0 | 0.00 | 0.00 | 0.00 | 51 | 1014.7 |
| 20260507210939 | 69 | 56 | 2.0 | 3.0 | 0.00 | 0.00 | 0.00 | 54 | 1014.8 |
| 20260507210423 | 69 | 308 | 1.0 | 3.0 | 0.00 | 0.00 | 0.00 | 55 | 1014.8 |
| 20260507210008 | 69 | 51 | 1.0 | 3.0 | 0.00 | 0.00 | 0.00 | 55 | 1014.7 |
| 20260507205953 | 69 | 50 | 1.0 | 3.0 | 0.00 | 0.00 | 0.00 | 54 | 1014.7 |
| 20260507205424 | 69 | 42 | 0.0 | 2.0 | 0.00 | 0.00 | 0.00 | 56 | 1014.9 |
| 20260507204936 | 69 | 43 | 0.0 | 2.0 | 0.00 | 0.00 | 0.00 | 54 | 1015.0 |
| 20260507204605 | 69 | 43 | 0.0 | 2.0 | 0.00 | 0.00 | 0.00 | 52 | 1015.1 |
| 20260507204436 | 69 | 319 | 1.0 | 3.0 | 0.00 | 0.00 | 0.00 | 60 | 1015.0 |
| 20260507203926 | 68 | 53 | 1.0 | 3.0 | 0.00 | 0.00 | 0.00 | 57 | 1015.0 |
| 20260507203438 | 68 | 57 | 1.0 | 5.0 | 0.00 | 0.00 | 0.00 | 57 | 1015.1 |
| 20260507203056 | 68 | 57 | 2.0 | 5.0 | 0.00 | 0.00 | 0.00 | 55 | 1015.1 |
| 20260507202947 | 69 | 57 | 3.0 | 5.0 | 0.00 | 0.00 | 0.00 | 55 | 1015.1 |
| 20260507202430 | 69 | 63 | 2.0 | 3.0 | 0.00 | 0.00 | 0.00 | 53 | 1015.2 |
| 20260507201937 | 69 | 143 | 0.0 | 1.0 | 0.00 | 0.00 | 0.00 | 57 | 1015.3 |
| 20260507201537 | 69 | 165 | 0.0 | 2.0 | 0.00 | 0.00 | 0.00 | 59 | 1015.3 |
| 20260507201443 | 70 | 171 | 0.0 | 2.0 | 0.00 | 0.00 | 0.00 | 60 | 1015.4 |
| 20260507200934 | 69 | 171 | 1.0 | 3.0 | 0.00 | 0.00 | 0.00 | 53 | 1015.4 |
| 20260507200505 | 69 | 59 | 1.0 | 3.0 | 0.00 | 0.00 | 0.00 | 56 | 1015.5 |
| 20260507200101 | 69 | 72 | 1.0 | 3.0 | 0.00 | 0.00 | 0.00 | 57 | 1015.5 |
| 20260507195943 | 70 | 264 | 1.0 | 2.0 | 0.00 | 0.06 | 0.00 | 59 | 1015.6 |
| 20260507195434 | 69 | 52 | 1.0 | 3.0 | 0.00 | 0.06 | 0.00 | 59 | 1015.6 |
| 20260507194942 | 69 | 50 | 1.0 | 3.0 | 0.00 | 0.06 | 0.00 | 62 | 1015.7 |
| 20260507194543 | 67 | 8 | 0.0 | 1.0 | 0.00 | 0.06 | 0.00 | 66 | 1015.7 |
| 20260507194423 | 67 | 75 | 0.0 | 1.0 | 0.00 | 0.06 | 0.00 | 66 | 1015.8 |
| 20260507193934 | 66 | 75 | 0.0 | 3.0 | 0.00 | 0.06 | 0.00 | 60 | 1015.9 |
| 20260507193427 | 66 | 52 | 2.0 | 3.0 | 0.00 | 0.06 | 0.00 | 61 | 1016.1 |
| 20260507193055 | 65 | 58 | 1.0 | 3.0 | 0.00 | 0.06 | 0.00 | 66 | 1016.1 |
| 20260507192928 | 66 | 54 | 1.0 | 3.0 | 0.00 | 0.06 | 0.00 | 63 | 1016.1 |
| 20260507192438 | 67 | 46 | 1.0 | 2.0 | 0.00 | 0.06 | 0.00 | 61 | 1016.1 |
| 20260507191929 | 66 | 65 | 1.0 | 2.0 | 0.00 | 0.06 | 0.00 | 57 | 1016.1 |
| 20260507191537 | 66 | 44 | 1.0 | 2.0 | 0.00 | 0.06 | 0.00 | 57 | 1016.2 |
| 20260507191440 | 67 | 35 | 1.0 | 3.0 | 0.00 | 0.06 | 0.00 | 56 | 1016.2 |
| 20260507190922 | 66 | 24 | 1.0 | 3.0 | 0.00 | 0.06 | 0.00 | 60 | 1016.2 |
| 20260507190428 | 67 | 184 | 1.0 | 3.0 | 0.00 | 0.06 | 0.00 | 61 | 1016.2 |
| 20260507190023 | 66 | 58 | 1.0 | 3.0 | 0.00 | 0.06 | 0.00 | 61 | 1016.2 |
| 20260507185936 | 67 | 13 | 1.0 | 2.0 | 0.00 | 0.17 | 0.00 | 63 | 1016.2 |
| 20260507185448 | 66 | 257 | 0.0 | 3.0 | 0.00 | 0.17 | 0.00 | 65 | 1016.3 |
| 20260507184931 | 66 | 53 | 2.0 | 3.0 | 0.00 | 0.17 | 0.00 | 61 | 1016.4 |
| 20260507184530 | 65 | 49 | 0.0 | 2.0 | 0.00 | 0.17 | 0.00 | 61 | 1016.5 |
| 20260507184441 | 66 | 49 | 1.0 | 2.0 | 0.00 | 0.17 | 0.00 | 61 | 1016.4 |
| 20260507183949 | 65 | 54 | 1.0 | 2.0 | 0.00 | 0.17 | 0.00 | 58 | 1016.5 |
| 20260507183432 | 65 | 21 | 1.0 | 2.0 | 0.00 | 0.17 | 0.00 | 58 | 1016.7 |
| 20260507183039 | 65 | 70 | 0.0 | 2.0 | 0.00 | 0.17 | 0.00 | 62 | 1016.8 |
| 20260507182942 | 66 | 70 | 0.0 | 2.0 | 0.00 | 0.17 | 0.00 | 60 | 1016.7 |
| 20260507182443 | 67 | 70 | 1.0 | 5.0 | 0.00 | 0.17 | 0.00 | 60 | 1016.8 |
| 20260507181934 | 67 | 209 | 2.0 | 5.0 | 0.00 | 0.17 | 0.00 | 55 | 1016.8 |
| 20260507181520 | 66 | 48 | 0.0 | 3.0 | 0.00 | 0.17 | 0.00 | 52 | 1017.0 |
| 20260507181422 | 67 | 47 | 1.0 | 3.0 | 0.00 | 0.17 | 0.00 | 52 | 1016.9 |
| 20260507180934 | 67 | 262 | 1.0 | 3.0 | 0.00 | 0.17 | 0.00 | 63 | 1017.0 |
| 20260507180445 | 65 | 34 | 1.0 | 4.0 | 0.00 | 0.17 | 0.00 | 57 | 1017.1 |
| 20260507180007 | 65 | 345 | 1.0 | 4.0 | 0.00 | 0.17 | 0.00 | 55 | 1017.2 |
| 20260507175944 | 66 | 51 | 1.0 | 3.0 | 0.00 | 0.26 | 0.00 | 53 | 1017.2 |
| 20260507175435 | 66 | 68 | 1.0 | 2.0 | 0.00 | 0.26 | 0.00 | 59 | 1017.3 |
| 20260507174928 | 65 | 276 | 1.0 | 3.0 | 0.00 | 0.26 | 0.00 | 70 | 1017.4 |
| 20260507174604 | 64 | 275 | 0.0 | 4.0 | 0.00 | 0.26 | 0.00 | 65 | 1017.6 |
| 20260507174429 | 64 | 263 | 2.0 | 4.0 | 0.00 | 0.26 | 0.00 | 63 | 1017.5 |
| 20260507173939 | 64 | 288 | 1.0 | 4.0 | 0.00 | 0.26 | 0.00 | 60 | 1017.5 |
| 20260507173510 | 64 | 27 | 1.0 | 4.0 | 0.00 | 0.26 | 0.00 | 61 | 1017.5 |
| 20260507173103 | 64 | 56 | 1.0 | 4.0 | 0.00 | 0.26 | 0.00 | 57 | 1017.6 |
| 20260507172931 | 65 | 68 | 1.0 | 4.0 | 0.00 | 0.26 | 0.00 | 62 | 1017.6 |
| 20260507172422 | 64 | 68 | 1.0 | 4.0 | 0.00 | 0.26 | 0.00 | 62 | 1017.6 |
| 20260507171926 | 64 | 131 | 2.0 | 3.0 | 0.00 | 0.26 | 0.00 | 64 | 1017.8 |
| 20260507171505 | 64 | 63 | 0.0 | 2.0 | 0.00 | 0.26 | 0.00 | 64 | 1018.0 |
| 20260507171436 | 64 | 56 | 1.0 | 2.0 | 0.00 | 0.26 | 0.00 | 64 | 1017.8 |
| 20260507170927 | 63 | 58 | 1.0 | 3.0 | 0.00 | 0.26 | 0.00 | 63 | 1017.9 |
| 20260507170430 | 63 | 47 | 1.0 | 5.0 | 0.00 | 0.26 | 0.00 | 63 | 1017.9 |
| 20260507170016 | 63 | 29 | 2.0 | 5.0 | 0.00 | 0.26 | 0.00 | 56 | 1018.2 |
| 20260507165940 | 63 | 47 | 2.0 | 5.0 | 0.00 | 0.27 | 0.00 | 63 | 1018.0 |
| 20260507165434 | 64 | 64 | 1.0 | 2.0 | 0.00 | 0.27 | 0.00 | 67 | 1018.1 |
| 20260507164935 | 64 | 340 | 1.0 | 3.0 | 0.00 | 0.27 | 0.00 | 61 | 1018.1 |
| 20260507164522 | 63 | 54 | 0.0 | 3.0 | 0.00 | 0.27 | 0.00 | 61 | 1018.3 |
| 20260507164425 | 63 | 56 | 1.0 | 4.0 | 0.00 | 0.27 | 0.00 | 60 | 1018.2 |
| 20260507163928 | 62 | 58 | 1.0 | 4.0 | 0.00 | 0.27 | 0.00 | 67 | 1018.2 |
| 20260507163455 | 62 | 61 | 1.0 | 4.0 | 0.00 | 0.27 | 0.00 | 64 | 1018.3 |
| 20260507163007 | 61 | 51 | 1.0 | 4.0 | 0.00 | 0.27 | 0.00 | 66 | 1018.5 |
| 20260507162923 | 62 | 58 | 2.0 | 4.0 | 0.00 | 0.27 | 0.00 | 65 | 1018.3 |
| 20260507162455 | 62 | 65 | 2.0 | 4.0 | 0.00 | 0.27 | 0.00 | 65 | 1018.3 |
| 20260507161945 | 62 | 56 | 1.0 | 3.0 | 0.00 | 0.27 | 0.00 | 64 | 1018.4 |
| 20260507161606 | 61 | 32 | 0.0 | 1.0 | 0.00 | 0.27 | 0.00 | 69 | 1018.6 |
| 20260507161426 | 62 | 19 | 0.0 | 1.0 | 0.00 | 0.27 | 0.00 | 66 | 1018.5 |
| 20260507160956 | 62 | 23 | 0.0 | 1.0 | 0.00 | 0.27 | 0.00 | 65 | 1018.5 |
| 20260507160428 | 61 | 44 | 0.0 | 1.0 | 0.00 | 0.27 | 0.00 | 70 | 1018.6 |
| 20260507160045 | 60 | 40 | 0.0 | 1.0 | 0.00 | 0.27 | 0.00 | 70 | 1018.6 |
| 20260507155937 | 61 | 40 | 0.0 | 1.0 | 0.00 | 0.27 | 0.00 | 73 | 1018.5 |
| 20260507155448 | 60 | 8 | 0.0 | 2.0 | 0.00 | 0.27 | 0.00 | 69 | 1018.6 |
| 20260507154931 | 60 | 352 | 0.0 | 2.0 | 0.00 | 0.27 | 0.00 | 76 | 1018.6 |
| 20260507154536 | 60 | 47 | 0.0 | 1.0 | 0.00 | 0.27 | 0.00 | 79 | 1018.7 |
| 20260507154441 | 60 | 44 | 0.0 | 1.0 | 0.00 | 0.27 | 0.00 | 79 | 1018.5 |
| 20260507153953 | 59 | 30 | 0.0 | 2.0 | 0.00 | 0.27 | 0.00 | 70 | 1018.5 |
| 20260507153433 | 59 | 101 | 1.0 | 2.0 | 0.00 | 0.27 | 0.00 | 76 | 1018.5 |
| 20260507153019 | 58 | 38 | 0.0 | 2.0 | 0.00 | 0.27 | 0.00 | 78 | 1018.8 |
| 20260507152943 | 59 | 38 | 0.0 | 2.0 | 0.00 | 0.27 | 0.00 | 77 | 1018.6 |
| 20260507152430 | 58 | 57 | 1.0 | 2.0 | 0.00 | 0.27 | 0.00 | 83 | 1018.6 |
| 20260507152001 | 58 | 53 | 0.0 | 2.0 | 0.00 | 0.27 | 0.00 | 80 | 1018.6 |